Погода Новотроицкое

Погода Новотроицкое : погода сейчас, прогноз погоды и архив. Всё, что Вы хотите узнать о погоде Новотроицкое!

Хотите узнать прогноз погоды Новотроицкое? Тогда Вам сюда: Погода Новотроицкое

Поиск расширенной информации на нашем сайте:

Другие новости

Новости СМИ2

Главная страница сайта

Новости сайта

02.10.2013

Напоминаем, что на нашем новом сайте вы можете получить высокодетализированные прогнозы погоды по пунктам России, СНГ и мира (включающие важные для авиации метеовеличины, такие как направление и скорость ветра, видимость, явления погоды, количество и форма облачности, нижняя и верхняя граница облачности), а также ознакомиться с разнообразными материалами по авиационной метеорологии и подборкой полезных ссылок на эту тему.

Сайт Метеоцентр.Азия посвящён разработке технологий оптимизации авиаметеорологического обслуживания, включая проектирование и перспективное создание нескольких автоматизированных авиаметеорологических систем:
- система выпуска высокодетальных прогностических карт явлений погоды для нижнего воздушного пространства по России и ближнему зарубежью;
- система верификации прогнозов TAF (выпускаемых синоптиками официальных АМСГ РФ и ближнего зарубежья) и AUTOTAF (выпускаемых сайтом Метеоцентр.Азия) - выявление ошибок, онлайн-сопоставление с фактической погодой METAR, автоматическое внесение коррективов в прогнозы при резком отклонении фактической погоды от прогноза, подсчёт оправдываемости прогнозов по элементам и в целом;
- система обработки, анализа и отображения авиаметеорологической информации для применения провайдерами метеорологической информации.


Погода Новотроицкое - сегодня

Время (UTC), дата Ветер
(°,м/с) 
Видим.   Явления Облачность Т
(°С)
Тd
(°С)
f(%) Тe
(°С)
Pmin
(гПа)
dP
(гПа)
Po
(мм)
O2
(г/м3)
Тmin Tmax R s Состояние
почвы
00 25.04.17 тихо ()   10 км    ясно 
+6.7 +3.9 82 +7  1017.7  -0.9  722  283           
03 25.04.17 320 (СЗ) 20000 м    ясно 
+14.6 +10.2 75 +17  1016.1  0.1  722  274           
06 25.04.17 090 (В) 20000 м    ясно 
+26.3 +14 47 +34  1012.9  -1  722  262  +6.6         
09 25.04.17 230 (ЮЗ) 20000 м    ясно 
+30.5 +3.8 18 +31  1010.7  -1.6  720  260           
12 25.04.17 050 (СВ) 20000 м    ясно 
+28.8 +6.7 25 +29  1009.7  -1.1  720  261           
15 25.04.17 050 (СВ) 10 км    ясно 
+19.8 +8.8 49 +21  1012.1  0.8  720  269    +31.7       
18 25.04.17 090 (В) 10 км    ясно 
+17.6 +9.2 58 +19  1013.2  0.6  721  271    +31.7       
21 25.04.17 180 (Ю) 10 км    ясно 
+13.2 +7.7 69 +14  1014.8  0.7  721  276           
00 26.04.17 180 (Ю) 10 км    ясно 
+6.6 +4 83 +8  1015.3  -0.8  721  283           
03 26.04.17 180 (Ю) 20000 м    ясно 
+15.8 +9.9 68 +19  1014.4  0.9  721  273           
06 26.04.17 тихо ()   20000 м    ясно 
+23.9 +10.9 44 +27  1012.9  721  265  +6.5         
09 26.04.17 050 (СВ) 20000 м    ясно 
+29.1 +10.7 32 +32  1011.2  -0.7  721  260           
12 26.04.17 050 (СВ) 20000 м    ясно 
+28.5 +11.8 36 +33  1011.4  0.1  721  261           
15 26.04.17 050 (СВ) 10 км    ясно 
+21 +10.6 51 +24  1013.5  0.7  721  268    +30.3       
18 26.04.17 тихо ()   10 км    ясно 
+14.4 +9.8 74 +16  1015.6  0.8  722  274    +30.3       
21 26.04.17 180 (Ю) 10 км    ясно 
+14 +11.3 84 +19  1015.9  0.3  722  275           
00 27.04.17 230 (ЮЗ) 10 км    3/0 средняя 
[Ac lent]
+14.6 +10.2 75 +17  1017.5  1.6  723  275           
03 27.04.17 тихо ()   20000 м    4/0 
+16 +5.6 50 +16  1020.3  2.8  725  275           
06 27.04.17 тихо ()   20000 м    ясно 
+20.5 +7.7 44 +21  1019.3  -0.1  725  271  +13.9         
09 27.04.17 270 (З) 20000 м    ясно 
+22.8 +8 39 +23  1018.5  -0.4  725  268           
12 27.04.17 320 (СЗ) 20000 м    9/9 1000 м 
[Sc]
+21.8 +8.1 41 +22  1019.6  0.9  726  269           
15 27.04.17 320 (СЗ) 10 км    10/10 1000 м 
[Sc]
+16 +4.8 47 +16  1024  3.1  728  276    +23.4       
18 27.04.17 320 (СЗ) 10 км    10/10 1000 м 
[Sc]
+10.5 +7.1 79 +11  1027.5  2.4  730  282    +23.4       
21 27.04.17 270 (З) 10 км    10/10 1000 м 
[Sc]
+9.3 +7.4 88 +10  1027  -0.7  729  283           
00 28.04.17 тихо ()   10 км  слаб. дождь  10/10 300 м 
[Ns]
+8.2 +7.6 96 +8  1027.6  0.4  730  284           
Время (UTC), дата Ветер
(°,м/с) 
Видим.   Явления Облачность Т
(°С)
Тd
(°С)
f(%) Тe
(°С)
Pmin
(гПа)
dP
(гПа)
Po
(мм)
O2
(г/м3)
Тmin Tmax R s Состояние
почвы

Для получения пояснительной информации подведите курсор к названию столбца.

ПОГОДА Новотроицкое - архив

Всё, что Вы хотите узнать о погоде Новотроицкое - удобно и подробно!

Выберите нужную дату (начиная с 1 января 2015* года) и нажмите кнопку "Найти".
Будут отображены архивные сводки погоды по пункту Новотроицкое, начиная с указанной даты.


Отображать данные в формате CSV (для использования в таблицах Excel)


Внимание! Наш архив погоды предназначен исключительно для личного некоммерческого использования в познавательных целях. Если Вам необходимы официальные справки о состоянии погоды (для производственных, юридических, коммерческих и т.п. целей), обращайтесь в органы Росгидромета.

*Примечание: данная дата относится к архиву по метеостанциям СССР (Россия, СНГ, Балтия).
Архив по метеостанциям Зарубежной Европы и Азии (кроме Китая) хранится 10 дней, по другим регионам земного шара (Китай, Африка, Америка, Австралия, Океания) - 1 день.

Новотроицкое - район местоположения метеостанции


Название, широта, долгота, высота метеостанции:
Новотроицкое 43.7°ш. 73.8°д. 456 м над ур. моря [Казахстан]

Дополнительная информация

В oтличие oт бoльшинства пoгoдных сайтoв мы публикуем пoдрoбную метеoинфoрмацию в детальнoм прoфессиoнальнoм фoрмате.

Характеристики температуры и влажнoсти вoздуха измеряются на высoте 2 м в тени вдали oт зданий и деревьев.
Скoрoсть ветра измеряется на высoте 10 м (на урoвне рoста челoвека скoрoсть ветра ниже в 1.5-2 раза). Если метеoстанция нахoдится в гoрoде или в лесу, тo скoрoсть ветра занижена на 2-4 м/с пo сравнению с oткрытым местoм. Скoрoсть ветра над акватoриями крупных рек и oзёр, а также на вершинах хoлмoв на 2-5 м/с выше, чем в oбычных услoвиях.
Атмoсфернoе давление в разных тoчках местнoсти мoжет значительнo oтличаться oт давления на метеoстанции, в зависимoсти oт услoвий рельефа (при пoдъёме на 10 м давление пoнижается примернo на 1 мм рт.ст.).